#timestamp,LO_Frequency,Hit,StdDev 
1622386815.4,286046998.2,N
1622386835.3,286046998.9,N
1622386855.1,286046996.7,N
1622386856.0,286046996.7,N
1622386875.8,286046996.8,N
1622386895.7,286047000.9,N
1622386915.5,286046999.3,N
1622386935.3,286046998.6,N
1622386955.2,286046998.3,N
1622386975.0,286046998.7,N
1622386975.9,286046998.7,N
1622386995.8,286047001.1,N
1622387015.6,286047001.2,N
1622387035.4,286047001.0,N
1622387055.3,286047001.2,N
1622387075.1,286047000.7,N
1622387095.9,286046998.2,N
1622387115.7,286047001.2,N
1622387135.5,286046998.9,N
1622387155.4,286047000.7,N
1622387175.2,286046999.9,N
1622387195.0,286046998.6,N
1622387195.9,286046998.6,N
1622387215.8,286046999.3,N
1622387235.6,286046998.3,N
1622387255.5,286046998.4,N
1622387275.3,286047000.0,N
1622387295.1,286047001.5,N
1622387315.9,286047001.5,N
1622387335.7,286047004.4,Y
1622387355.6,286047001.9,P
1622387375.4,286047002.6,N
1622387395.2,286047002.6,N
1622387415.1,286046998.9,N
1622387416.0,286046998.9,N
1622387435.8,286047000.2,N
1622387455.7,286046998.1,N
1622387475.5,286046998.3,N
1622387495.3,286046999.0,N
1622387515.2,286046998.7,N
1622387535.0,286046998.8,N
1622387535.9,286046998.8,N
1622387555.7,286046999.3,N
1622387575.6,286046998.8,N
1622387595.4,286046999.4,N
1622387615.3,286046999.5,N
1622387635.1,286046999.8,N
1622387655.8,286047002.4,N
1622387675.7,286047001.3,N
1622387695.5,286047005.7,Y
1622387715.4,286047008.8,P
1622387735.2,286047009.5,N
1622387755.0,286047013.9,P
1622387755.9,286047013.9,N
1622387775.8,286047013.1,N
1622387795.6,286047016.6,Y
1622387815.4,286047004.7,P
1622387835.3,286047004.4,N
1622387855.1,286047002.9,N
1622387875.9,286047003.5,N
1622387895.7,286047002.7,N
1622387915.5,286047000.4,N
1622387935.4,286046999.1,N
1622387955.2,286047000.7,N
1622387975.0,286046999.7,N
1622387975.9,286046999.7,N
1622387995.8,286047004.1,N
1622388015.6,286047005.7,N
1622388035.5,286047005.4,N
1622388055.3,286047005.3,N
1622388075.1,286047006.6,N
1622388095.9,286047005.2,N
1622388115.7,286047006.7,N
1622388135.5,286047006.9,N
1622388155.4,286047007.0,N
1622388175.2,286047004.6,N
1622388195.1,286047004.5,N
1622388196.0,286047004.5,N
1622388215.8,286047007.4,N
1622388235.6,286047007.3,N
1622388255.5,286047006.5,N
1622388275.3,286047006.3,N
1622388295.1,286047006.4,N
1622388315.9,286047006.9,N
1622388335.7,286047007.3,N
1622388355.6,286047006.8,N
1622388375.4,286047007.6,Y
1622388395.2,286047002.4,P
1622388415.1,286047000.3,N
1622388416.0,286047000.3,N
1622388435.8,286046998.8,N
1622388455.7,286046999.6,N
1622388475.5,286046997.9,N
1622388495.3,286046997.1,N
1622388515.2,286046995.3,N
1622388535.9,286046997.8,N
1622388555.7,286046997.4,N
1622388575.6,286046996.7,N
1622388595.4,286046998.0,N
1622388615.2,286046994.0,N
1622388635.1,286046999.2,N
1622388636.0,286046999.2,N
1622388655.8,286047001.2,N
1622388675.7,286046999.8,N
1622388695.5,286047000.2,N
1622388715.3,286046999.3,N
1622388735.2,286046998.7,N
1622388755.0,286047002.7,N
1622388755.9,286047002.7,N
1622388775.8,286047002.7,N
1622388795.6,286047002.5,N
1622388815.4,286047002.2,N
1622388835.3,286046999.7,N
1622388855.1,286047002.3,N
1622388875.9,286047002.5,N
1622388895.7,286047000.9,N
1622388915.5,286046998.6,N
1622388935.4,286046998.1,N
1622388955.2,286046998.8,N
1622388975.0,286046999.6,N
1622388975.9,286046999.6,N
1622388995.8,286046999.3,N
1622389015.6,286046998.2,N
1622389035.5,286046998.7,N
1622389055.3,286046998.6,N
1622389075.1,286046997.5,N
1622389095.9,286046995.6,N
1622389115.7,286046994.9,N
1622389135.5,286046996.2,N
1622389155.4,286046997.7,N
1622389175.2,286046999.3,N
1622389195.1,286046998.9,N
1622389196.0,286046998.9,N
1622389215.8,286046998.7,N
1622389235.6,286047006.5,Y
1622389255.5,286047007.1,P
1622389275.3,286047004.5,N
1622389295.2,286047004.7,N
1622389315.9,286047010.8,Y
1622389335.7,286047005.2,P
1622389355.6,286047001.8,N
1622389375.4,286047000.4,N
1622389395.2,286047001.1,N
1622389415.1,286046998.9,N
1622389416.0,286046998.9,N
1622389435.8,286047000.7,N
1622389455.7,286047000.0,N
1622389475.5,286046998.4,N
1622389495.3,286046998.7,N
1622389515.2,286046999.5,N
1622389535.0,286046997.8,N
1622389535.9,286046997.8,N
1622389555.7,286046995.9,N
1622389575.6,286046995.8,N
1622389595.4,286046995.1,N
1622389615.3,286046995.7,N
1622389635.1,286046994.0,N
1622389636.0,286046994.0,N
1622389655.8,286046992.5,N
1622389675.7,286046992.5,N
1622389695.5,286046991.3,N
1622389715.4,286046989.7,N
1622389735.2,286046987.2,Y
1622389755.0,286046990.7,P
1622389755.9,286046990.7,N
1622389775.8,286046990.8,N
1622389795.6,286046989.1,Y
1622389815.4,286046995.0,P
1622389835.3,286046997.5,N
1622389855.1,286046997.9,N
1622389875.9,286046995.8,N
1622389895.7,286046995.2,N
1622389915.5,286046995.0,N
1622389935.4,286046996.3,N
1622389955.2,286046996.0,N
1622389975.0,286046993.8,Y
1622389976.0,286046993.8,P
1622389995.8,286046999.2,N
1622390015.6,286046996.7,N
1622390035.5,286046997.7,N
1622390055.3,286046997.1,N
1622390075.1,286046997.1,N
1622390095.9,286046997.3,N
1622390115.7,286046997.3,N
1622390135.6,286046997.0,N
1622390155.4,286046997.3,N
1622390175.2,286046996.7,N
1622390195.1,286046997.3,N
1622390196.0,286046997.3,N
1622390215.8,286046997.2,N
1622390235.6,286046997.1,N
1622390255.5,286046998.0,N
1622390275.3,286046996.1,Y
1622390295.2,286046998.5,P
1622390315.9,286047000.7,N
1622390335.7,286046998.4,N
1622390355.6,286046999.0,N
1622390375.4,286046999.3,N
1622390395.2,286046999.1,N
